Погода в Хмельнике

Польша     50°36′41″N   20°45′18″E
темп.,
°C
ветер,
м/с
пор.,
м/с
влажн.,
%
обл.,
%
осадки,
мм/ч
давл.,
гПа
погр.,
м
27 февраля, сб
сб2701:00+5зсз61284100 0.3 1028692
04:00+4зсз61087100 0.1 1027748
07:00+4сз71184100 0.2 1028874
10:00+4сз71080100 0.0 1029869
13:00+4сз71080100 0.0 1031857
16:00+4сз71077100 0.0 1031978
19:00+4зсз51178100 0.1 1032559
22:00+3зсз598596 0.0 1033356
28 февраля, вс
вс2801:00+1зсз499448 0.0 1034229
04:00+1зсз599638 0.0 1034376
07:00+1зсз599069 0.0 1034472
10:00+3зсз587788 0.0 1033549
13:00+6зсз686844 0.0 1033655
16:00+6зсз59680 0.0 1031761
19:00+5сз5108218 0.0 1032698
22:00+3сз4886100 0.0 1032558
1 марта, пн
пн101:00+1сз499575 0.0 1033351
04:00+2ссз469396 0.0 1034352
07:00+1сз349594 0.0 1035140
10:00+4зсз348488 0.0 1035396
13:00+6зсз457494 0.0 1035609
16:00+7сз246879 0.0 1034848
19:00+4з228451 0.0 103622
22:00+3з23870 0.0 103623
2 марта, вт
вт201:00+2з23880 0.0 103629
04:00+1з23880 0.0 103529
07:00+1з23880 0.0 103555
10:00+7зсз35670 0.0 1034310
13:00+11зсз35530 0.0 1033596
16:00+10зсз35570 0.0 1032311
19:00+6з33700 0.0 103328
22:00+4зсз22730 0.0 103322
3 марта, ср
ср301:00+3зсз12770 0.0 103322
04:00+2з12800 0.0 103222
07:00+2з22800 0.0 103222
10:00+8з23580 0.0 1032363
13:00+11юз23500 0.0 1030682
16:00+10ююз23560 0.0 1028295
19:00+6ююз23710 0.0 102822
22:00+4юз23751 0.0 102822